Date String (YYYY-MM-DD hh:mm:ss) UTC,Instrument flags,Ambient pressure (hPa),Sample flow (lpm),Bypass flow (lpm),Sample temperature (°C),Ambient temperature (°C),ASC tube jacket temperature (°C),LED temperature (°C),Box temperature (°C),Sample RH (%),Span deviation,Mass concentration (μg/m³),Mass concentration (μg/m³),Mass concentration (μg/m³)
DateTimeUTC,F1_M11,P_M11,Q1_M11,Q2_M11,T1_M11,T2_M11,T3_M11,T4_M11,T5_M11,U1_M11,ZSPAN_M11,X2_M11,X0_M11,X1_M11
2022-01-07 07:00:00,,0815.9,4.99,0.00,21.9,23.0,00.0,30.8,23.7,12.0,0002.1,0006.77,0010.64,0006.23
2022-01-07 07:01:00,,0815.8,5.00,0.00,22.0,23.3,00.0,30.9,23.9,11.3,0002.0,0006.81,0010.63,0006.27
2022-01-07 07:02:00,,0815.8,5.01,0.00,22.0,22.7,00.0,30.9,23.8,11.3,0001.7,0006.84,0010.69,0006.29
2022-01-07 07:03:00,,0815.8,4.99,0.00,22.0,22.1,00.0,30.9,23.6,11.3,0001.2,0006.84,0010.73,0006.29
2022-01-07 07:04:00,,0815.7,5.00,0.00,21.9,21.7,00.0,30.9,23.5,11.3,0001.6,0006.89,0010.75,0006.35
2022-01-07 07:05:00,,0815.8,5.01,0.00,21.9,21.5,00.0,30.9,23.4,11.4,0001.7,0007.03,0010.87,0006.48
2022-01-07 07:06:00,,0815.7,5.00,0.00,21.8,21.3,00.0,30.8,23.3,11.9,0002.2,0007.11,0010.99,0006.55
2022-01-07 07:07:00,,0815.7,5.00,0.00,21.8,21.2,00.0,30.8,23.3,12.4,0002.7,0007.04,0010.93,0006.49
2022-01-07 07:08:00,,0815.9,5.00,0.00,21.7,21.0,00.0,30.8,23.2,12.6,0002.9,0007.03,0010.92,0006.46
2022-01-07 07:09:00,,0815.8,4.99,0.00,21.6,20.8,00.0,30.8,23.0,12.1,0002.8,0007.13,0011.05,0006.55
2022-01-07 07:10:00,,0815.6,5.01,0.00,21.5,20.6,00.0,30.8,22.9,11.9,0002.7,0007.19,0011.12,0006.61
2022-01-07 07:11:00,,0815.8,5.00,0.00,21.5,21.3,00.0,30.8,23.1,11.7,0002.4,0007.16,0011.07,0006.60
2022-01-07 07:12:00,,0815.7,4.99,0.00,21.7,22.3,00.0,30.8,23.4,11.6,0002.8,0007.07,0010.93,0006.52
2022-01-07 07:13:00,,0815.8,5.01,0.00,21.9,22.9,00.0,30.8,23.7,11.4,0002.9,0007.03,0010.82,0006.48
2022-01-07 07:14:00,,0815.9,5.01,0.00,21.8,22.4,00.0,30.9,23.5,11.3,0003.0,0006.99,0010.74,0006.44
2022-01-07 07:15:00,,0815.9,5.01,0.00,21.8,22.0,00.0,30.8,23.4,11.0,0002.5,0007.05,0010.91,0006.47
2022-01-07 07:16:00,,0815.8,5.00,0.00,21.8,21.7,00.0,30.8,23.3,11.3,0002.7,0007.05,0010.91,0006.48
2022-01-07 07:17:00,,0815.8,5.01,0.00,21.7,21.4,00.0,30.8,23.3,11.5,0002.6,0007.09,0010.94,0006.53
2022-01-07 07:18:00,,0815.9,4.99,0.00,21.7,21.1,00.0,30.8,23.2,11.6,0002.5,0007.19,0011.07,0006.63
2022-01-07 07:19:00,,0815.9,5.00,0.00,21.6,21.0,00.0,30.8,23.1,11.4,0002.5,0007.38,0011.31,0006.79
2022-01-07 07:20:00,,0816.0,4.99,0.00,21.5,20.8,00.0,30.7,22.9,11.4,0002.5,0007.44,0011.38,0006.86
2022-01-07 07:21:00,,0815.9,5.01,0.00,21.4,20.6,00.0,30.7,22.8,11.4,0002.6,0007.46,0011.37,0006.89
2022-01-07 07:22:00,,0815.8,4.99,0.00,21.4,21.2,00.0,30.7,23.0,11.5,0002.6,0007.47,0011.58,0006.91
2022-01-07 07:23:00,,0816.0,5.00,0.00,21.6,22.2,00.0,30.7,23.4,11.5,0002.0,0007.51,0011.92,0006.90
2022-01-07 07:24:00,,0816.0,5.01,0.00,21.8,22.9,00.0,30.8,23.7,11.3,0001.8,0007.53,0011.97,0006.89
2022-01-07 07:25:00,,0816.1,5.00,0.00,21.8,22.5,00.0,30.8,23.6,11.1,0002.0,0007.62,0012.14,0006.95
2022-01-07 07:26:00,,0816.1,4.99,0.00,21.8,22.1,00.0,30.8,23.4,10.9,0002.0,0007.62,0012.14,0006.93
2022-01-07 07:27:00,,0816.0,5.00,0.00,21.7,21.6,00.0,30.8,23.2,10.9,0002.0,0007.67,0012.18,0006.95
2022-01-07 07:28:00,,0815.9,5.00,0.00,21.6,21.4,00.0,30.8,23.1,10.7,0001.8,0007.75,0012.29,0007.04
2022-01-07 07:29:00,,0815.8,5.00,0.00,21.6,21.2,00.0,30.7,23.1,10.6,0001.5,0007.88,0012.38,0007.17
2022-01-07 07:30:00,,0815.8,4.99,0.00,21.6,21.1,00.0,30.7,23.2,10.9,0001.7,0007.91,0012.50,0007.20
2022-01-07 07:31:00,,0815.8,4.99,0.00,21.6,21.0,00.0,30.7,23.2,10.2,0002.0,0008.00,0013.06,0007.27
2022-01-07 07:32:00,,0815.8,5.01,0.00,21.6,20.9,00.0,30.7,23.2,10.4,0001.7,0008.10,0013.17,0007.36
2022-01-07 07:33:00,,0815.7,4.99,0.00,21.6,20.9,00.0,30.7,23.1,11.5,0001.5,0008.04,0012.87,0007.29
2022-01-07 07:34:00,,0815.8,5.01,0.00,21.5,20.9,00.0,30.7,23.0,12.1,0001.5,0007.89,0012.50,0007.18
2022-01-07 07:35:00,,0815.9,4.99,0.00,21.6,21.5,00.0,30.7,23.2,12.3,0001.3,0007.72,0012.33,0007.04
2022-01-07 07:36:00,,0816.1,5.00,0.00,21.7,22.5,00.0,30.7,23.6,12.0,0001.3,0007.53,0012.06,0006.89
2022-01-07 07:37:00,,0816.2,4.99,0.00,21.9,23.1,00.0,30.8,23.8,11.6,0001.5,0007.38,0011.86,0006.77
2022-01-07 07:38:00,,0816.0,5.01,0.00,22.0,22.9,00.0,30.8,23.9,11.0,0000.9,0007.33,0011.87,0006.71
2022-01-07 07:39:00,,0815.8,5.00,0.00,22.0,22.5,00.0,30.8,23.8,10.9,0000.9,0007.28,0011.82,0006.67
2022-01-07 07:40:00,,0815.7,5.00,0.00,22.0,22.2,00.0,30.8,23.7,11.0,0000.8,0007.24,0012.32,0006.59
2022-01-07 07:41:00,,0815.7,5.00,0.00,22.0,22.0,00.0,30.8,23.7,11.1,0000.2,0007.21,0012.28,0006.55
2022-01-07 07:42:00,,0815.7,4.99,0.00,21.9,21.8,00.0,30.8,23.6,11.2,-000.1,0007.07,0011.67,0006.42
2022-01-07 07:43:00,,0815.8,4.99,0.00,21.9,21.6,00.0,30.9,23.6,11.2,0000.2,0006.92,0011.52,0006.28
2022-01-07 07:44:00,,0815.9,5.00,0.00,21.9,21.5,00.0,30.9,23.6,11.2,0000.7,0006.96,0011.55,0006.32
2022-01-07 07:45:00,,0815.9,5.00,0.00,21.9,21.4,00.0,30.9,23.5,11.3,0000.9,0007.05,0011.64,0006.39
2022-01-07 07:46:00,,0815.9,5.01,0.00,21.9,21.3,00.0,30.9,23.5,11.3,0001.3,0007.14,0011.71,0006.47
2022-01-07 07:47:00,,0815.8,5.00,0.00,21.8,21.2,00.0,30.8,23.4,11.3,0000.7,0007.21,0011.83,0006.54
2022-01-07 07:48:00,,0815.7,4.99,0.00,21.8,21.1,00.0,30.8,23.3,11.3,0000.8,0007.24,0011.79,0006.59
2022-01-07 07:49:00,,0815.7,5.00,0.00,21.7,21.0,00.0,30.8,23.3,11.5,0001.0,0007.18,0012.20,0006.55
2022-01-07 07:50:00,,0815.7,5.01,0.00,21.8,21.3,00.0,30.8,23.4,12.0,0000.8,0007.02,0012.11,0006.39
2022-01-07 07:51:00,,0815.8,5.00,0.00,21.9,22.2,00.0,30.9,23.7,11.8,0001.0,0006.86,0011.47,0006.26
2022-01-07 07:52:00,,0816.0,5.00,0.00,22.0,23.0,00.0,30.9,24.0,11.5,0001.1,0006.75,0011.37,0006.19
2022-01-07 07:53:00,,0816.0,5.00,0.00,22.1,22.9,00.0,31.0,24.0,11.4,0001.1,0006.71,0011.39,0006.15
2022-01-07 07:54:00,,0815.9,5.01,0.00,22.1,22.4,00.0,31.0,23.8,11.5,0001.1,0006.68,0011.42,0006.13
2022-01-07 07:55:00,,0815.9,5.00,0.00,22.0,22.0,00.0,31.0,23.6,11.4,0001.1,0006.66,0011.46,0006.11
2022-01-07 07:56:00,,0815.9,4.99,0.00,21.9,21.7,00.0,30.9,23.4,11.4,0001.1,0006.65,0011.41,0006.11
2022-01-07 07:57:00,,0815.7,5.01,0.00,21.8,21.4,00.0,30.9,23.3,11.4,0001.1,0006.67,0011.83,0006.13
2022-01-07 07:58:00,,0816.0,5.00,0.00,21.8,21.2,00.0,30.9,23.2,11.5,0001.5,0006.68,0012.07,0006.12
2022-01-07 07:59:00,,0816.1,5.00,0.00,21.7,21.0,00.0,30.9,23.2,11.8,0001.7,0006.66,0012.14,0006.06
